Flag for Canada Weather past 2 weeks in Fort Liard, Northwest Territories, Canada

Now
48 °F

Cool.


Feels Like: 48 °F
Forecast: 42 / 72 °F
Wind: No wind

Location: Lindberg Landing

Current Time: Aug 23, 2014 at 10:13:54 AM

Latest Report: Aug 23, 2014 at 9:00 AM


Visibility: N/A

Pressure: 30.14 "Hg

Humidity: 95%

Dew point: 46 °F

Location of Fort LiardLocation

Historic Weather in Fort Liard — Graph

°F

Fort Liard temperature yesterday

Maximum temperature yesterday: 73 °F (at 5:00 PM)
Minimum temperature yesterday: 40 °F (at 8:00 AM)
Average temperature yesterday: 56 °F

Past Weeks' High & Low Weather Summary

 TemperatureHumidityPressure
High89 °F (Aug 15, 6:00 PM)100% (Aug 15, 7:00 AM)30.27 "Hg (Aug 15, 7:00 AM)
Low38 °F (Aug 21, 7:00 AM)20% (Aug 16, 3:00 PM)29.54 "Hg (Aug 18, 6:00 AM)
Average62 °F70%29.88 "Hg
* Reported Aug 8 9:00 AM — Aug 23 9:00 AM, Fort Liard, Weather by CustomWeather, © 2014

Note: Actual official high and low records may vary slightly from our data, if they occured in-between our weather recording intervals... More about our weather records

Advertising

Fort Liard weather history for previous 24 hours

 ConditionsComfort  
Time TempWeatherWind HumidityBarometerVisibility
9:00 AM
Aug 23
48 °FCool.No wind95%30.14 "HgN/A
8:00 AM44 °FQuite cool.1 mph92%30.14 "HgN/A
7:00 AM43 °FQuite cool.1 mph99%30.14 "HgN/A
6:00 AM43 °FQuite cool.1 mph99%30.13 "HgN/A
5:00 AM44 °FQuite cool.No wind98%30.14 "HgN/A
4:00 AM45 °FCool.No wind98%30.14 "HgN/A
3:00 AM46 °FCool.No wind98%30.14 "HgN/A
2:00 AM46 °FCool.No wind97%30.15 "HgN/A
1:00 AM47 °FCool.1 mph97%30.15 "HgN/A
12:00 AM49 °FCool.1 mph96%30.16 "HgN/A
11:00 PM
Aug 22
52 °FCool.No wind95%30.15 "HgN/A
10:00 PM55 °FCool.No wind92%30.16 "HgN/A
9:00 PM62 °FCool.1 mph75%30.17 "HgN/A
8:00 PM67 °FMild.3 mph57%30.18 "HgN/A
7:00 PM72 °FMild.6 mph41%30.18 "HgN/A
6:00 PM72 °FMild.5 mph38%30.18 "HgN/A
5:00 PM73 °FMild.3 mph37%30.19 "HgN/A
4:00 PM73 °FMild.3 mph40%30.21 "HgN/A
3:00 PM71 °FMild.2 mph44%30.23 "HgN/A
2:00 PM69 °FMild.2 mph49%30.24 "HgN/A
1:00 PM66 °FMild.2 mph54%30.24 "HgN/A
12:00 PM61 °FCool.2 mph61%30.25 "HgN/A
11:00 AM57 °FCool.2 mph70%30.26 "HgN/A
10:00 AM52 °FCool.1 mph79%30.26 "HgN/A
Weather by CustomWeather, © 2014

See weather overviewHow to use our weather pages